Regional Weather Roundup
Issued by NWS Charleston, SC

Current Version | Previous Version | Graphics & Text | Print | Product List | Glossary On
Versions: 1 2 3 4 5 6 7 8 9 10 11 12 13 14 15 16 17 18 19 20 21 22 23 24 25 26 27 28 29 30 31 32 33 34 35 36 37 38 39 40 41 42 43 44 45 46 47 48 49 50
000
ASUS42 KCHS 192112
RWRCHS

Regional Weather Roundup
National Weather Service Charleston SC
400 PM EST FRI JAN 19 2018

NOTE: "fair" indicates few or no clouds below 12,000 feet with no
significant weather and/or obstructions to visibility.

Not all stations are quality controlled. Use data with caution,
especially dewpoint observations.

SCZ027-030-031-034>040-042>050-192200-
...Southeast South Carolina...

CITY           SKY/WX    TMP DP  RH WIND       PRES   REMARKS
N Charleston   FAIR      62  17  17 W5        30.20F
Waterfront Prk NOT AVBL
Mount Pleasant FAIR      61  23  23 SW6       30.20F
Johns Island   FAIR      57  34  41 S8        30.21S
Pinopolis        N/A     57  23  26 SW6       30.10F
Moncks Corner  FAIR      61  10  13 SW6       30.19F
Summerville    FAIR      61  14  16 W6        30.20F
Beaufort MCAS  FAIR      61  14  16 W6        30.22F
Beaufort Arpt  FAIR      59  23  25 S8        30.22S
Hilton Head Is SUNNY     52  36  54 S6        30.24S
Walterboro     FAIR      61  12  15 W7        30.21S
Allendale      FAIR      61   5  11 CALM      30.20S

...Southern Midlands and Pee Dee...

CITY           SKY/WX    TMP DP  RH WIND       PRES   REMARKS
Georgetown     FAIR      61  19  20 W6        30.20S
Kingstree      FAIR      59   9  13 SW9       30.18F
Orangeburg     FAIR      60  13  15 SW8       30.19S
Barnwell         N/A     63  14  15 W8        30.20S
Aiken          FAIR      59  10  14 W9        30.22F
Manning        FAIR      61  10  13 MISG      30.19S
Columbia       FAIR      60  21  22 NW7       30.18F
Sumter         FAIR      60  16  18 SW6       30.16F
Florence       FAIR      59  16  18 W9        30.18R
Myrtle Beach   FAIR      52  33  48 S10       30.20S
N Myrtle Beach FAIR      50  36  58 SW12      30.19S

$$

GAZ063-065-086>088-099>101-113>116-118-119-134>141-150-192200-
...Southeast Georgia...

CITY           SKY/WX    TMP DP  RH WIND       PRES   REMARKS
Savannah Arpt  FAIR      61  11  14 W9        30.23F
Hunter AAF     FAIR      60  17  18 W6        30.21S
Fort Stewart   SUNNY     59  15  17 SW7       30.23S
Statesboro     FAIR      61  -8   6 W8        30.23R
Sylvania       FAIR      61  15  16 W5        30.22F
Claxton        FAIR      61   6  11 SW6       30.24R

...CSRA, Central and far Southeast Georgia...

CITY           SKY/WX    TMP DP  RH WIND       PRES   REMARKS
Thomson        FAIR      60   5  11 N12       30.25S
Augusta-Bush   FAIR      62   3   9 W7        30.19F
Augusta-Daniel FAIR      61   7  11 VRB5      30.20S
Swainsboro     FAIR      61  14  16 W7        30.23S
Vidalia        FAIR      61  16  17 SW3       30.24R
Eastman        FAIR     N/A N/A N/A SW5       30.27S
Hazlehurst     FAIR      61 -34   2 CALM      30.24S
Alma           FAIR      59   9  13 W5        30.25F
Waycross       FAIR      59   1   9 NW7       30.25F
Jesup          FAIR      61  10  13 NW5       30.26S
Baxley         FAIR      55   9  15 SW3       30.24F
Brunswick      FAIR      59  19  21 SW5       30.26S
Saint Simons   FAIR      53  31  42 S6        30.25F

$$

SCZ027-028-034-036>038-045-046-048>050-GAZ119-141-192200-
...Lake and Supplemental Coastal Observations...

STATION/POSITION TIME  TEMP    WIND        PRES    WAVE   SWELL
                       AIR SEA DIR/SP/G            HT/PER HT/PER/DIR
                 (UTC) (F)     (DEG/KT/KT) (MB)    (FT/S) (FT/S/D)
Winyah Bay       NOT AVBL
Lake Murray      2020   54     260/  8/  9 1021.7
ACE Basin NERRS  1945   57     260/  3     1023.0
Fort Pulaski     2048   56 45  170/  5/  8 1023.9F
Sapelo Island    2000   58     240/  4     1025.0

$$

ANZ835-935-AMZ111-154-330-350-352-354-370-450-454-472-192200-
...C-MAN and Buoy Observations...

STATION/POSITION TIME  TEMP    WIND        PRES    WAVE   SWELL
                       AIR SEA DIR/SP/G            HT/PER HT/PER/DIR
                 (UTC) (F)     (DEG/KT/KT) (MB)    (FT/S) (FT/S/D)
Buoy 41004       2050   55 69  250/ 16/ 19 1023.3F   4/ 5   2/100/11
Buoy 41008       1950   48 51  180/ 10/ 12 1025.0    2/11   2/ 70/11
Folly Beach CMAN 2000   49     220/ 11/ 12 1023.8F
Capers Nearshore 2008   46 49  230/ 12/ 17 1022.9F
Fripp Nearshore  2008   45 45  210/ 10/ 14 1023.4F


STATION/POSITION TIME  TEMP    WIND        PRES    WAVE   SWELL
                       AIR SEA DIR/SP/G            HT/PER HT/PER/DIR
                 (UTC) (F)     (DEG/KT/KT) (MB)    (FT/S) (FT/S/D)
5E St. Marys GA  2030      50                N/A     2/11   2/100/11
Frying Pan Buoy  2050   55 62  250/ 16/ 19 1022.7F   4/11   2/ 90/11
Buoy 41025       2050   56     250/ 17/ 21 1021.6F   5/11   3/ 70/11
Cape Lookout NC  2000          240/ 10/ 13 1022.3F
Buoy 41002       1950   61 70  280/  8/ 14 1023.7    8/11   8/ 40/11
Buoy 41010       NOT AVBL
St Augustine FL  2100   50 50  100/  5/  5 1025.3F


$$



USA.gov is the U.S. government's official web portal to all federal, state and local government web resources and services.